Hourly Data Report for October 07, 2016

All times are specified in Local Standard Time (LST). Add 1 hour to adjust for Daylight Saving Time where and when it is observed.

BATHURST A
NEW BRUNSWICK

47°37'47.000" N
65°44'20.000" W
58.80 m
8100505
71574
ZBF

Download Data

Hourly Data (October 2016)
Hourly Data Report for October 7, 2016
Temp Definition
°C
Dew Point Temp Definition
°C
Rel Hum Definition
%
Wind Dir Definition
10's deg

Wind Spd Definition
km/h
Visibility Definition
km
Stn Press Definition
kPa
Hmdx Definition


Wind Chill Definition


Weather Definition


TIME
00:00 Legend Double Dagger 8.9 6.9 87 22 5 24.1 101.38     LegendNANA
01:00 Legend Double Dagger 8.1 7.5 96 14 5 24.1 101.44     LegendNANA
02:00 Legend Double Dagger 6.5 5.8 95 23 3 24.1 101.46     Clear
03:00 Legend Double Dagger 6.2 5.8 97 16 4 24.1 101.50     LegendNANA
04:00 Legend Double Dagger 6.9 6.3 96 23 4 24.1 101.50     LegendNANA
05:00 Legend Double Dagger 8.2 7.6 96 18 3 24.1 101.47     Clear
06:00 Legend Double Dagger 7.9 7.3 96 36 3 24.1 101.49     LegendNANA
07:00 Legend Double Dagger 11.7 10.5 92 26 9 24.1 101.52     LegendNANA
08:00 Legend Double Dagger 15.0 11.4 79 27 12 24.1 101.58     Mostly Cloudy
09:00 Legend Double Dagger 15.6 11.4 76 27 12 24.1 101.59     LegendNANA
10:00 Legend Double Dagger 18.6 12.2 66 28 8 24.1 101.56     LegendNANA
11:00 Legend Double Dagger 20.4 10.9 54 27 18 24.1 101.55     Mostly Cloudy
12:00 Legend Double Dagger 21.6 12.0 54 22 13 24.1 101.51     LegendNANA
13:00 Legend Double Dagger 23.8 7.2 34 31 13 24.1 101.44     LegendNANA
14:00 Legend Double Dagger 24.3 7.2 33 30 15 24.1 101.43     Cloudy
15:00 Legend Double Dagger 24.5 7.4 33 29 16 24.1 101.42 25   LegendNANA
16:00 Legend Double Dagger 24.3 8.5 36 26 20 24.1 101.43 25   LegendNANA
17:00 Legend Double Dagger 22.5 9.8 44 25 7 24.1 101.41     Mostly Cloudy
18:00 Legend Double Dagger 17.4 10.4 63 25 7 24.1 101.42     LegendNANA
19:00 Legend Double Dagger 15.5 9.9 69 25 6 24.1 101.44     LegendNANA
20:00 Legend Double Dagger 12.2 9.8 85 23 7 24.1 101.43     Clear
21:00 Legend Double Dagger 11.2 9.6 90 23 3 24.1 101.46     LegendNANA
22:00 Legend Double Dagger 12.4 9.8 84 24 8 24.1 101.45     LegendNANA
23:00 Legend Double Dagger 12.0 9.6 85 22 8 24.1 101.44     Mainly Clear

Notes on Data Quality.

Legend

  • E = Estimated
  • M = Missing
  • NA = Not Available
  • ‡ = Partner data that is not subject to review by the National Climate Archives
Date modified: